Location: Favalello
(42.2939°N, 9.2706°E)
Time: 22:54:58
(UTC+00:00)

Envisat - Pass Details

Date: 06 December 2019
Orbit: 764 x 766 km, 98.1° (Epoch: 18 January)

Event Time Altitude Azimuth Distance (km) Brightness Sun altitude
Rises 16:43:44 0° 148° (SSE) 3,220 6.1 -9.7°
Reaches altitude 10° 16:46:06 10° 142° (SE) 2,298 5.3 -10.1°
Maximum altitude 16:50:54 45° 70° (ENE) 1,045 3.3 -10.9°
Drops below altitude 10° 16:55:44 10° 360° (N) 2,313 5.3 -11.7°
Sets 16:58:07 0° 354° (N) 3,244 6.1 -12.2°
